Location: Vancouver
(49.2500°N, 123.1330°W)
Time: 23:50:02
(UTC-07:00)

Daily predictions for brighter satellites

Satellite Brightness Start Highest point End
(mag) Time Altitude Azimuth Time Altitude Azimuth Time Altitude Azimuth
Terra 3.6 21:36:43 10° ESE 21:39:59 19° ENE 21:43:14 10° NNE
CZ-2C R/B 3.1 21:39:43 10° SSW 21:41:31 20° W 21:43:20 10° NW
APEX 3.9 21:38:21 10° NW 21:42:04 60° WSW 21:46:52 10° SSE
Cosmos 1461 3.1 21:38:35 10° NW 21:42:58 74° SW 21:47:07 10° SSE
Cosmos 1603 4.3 21:39:40 10° S 21:44:45 37° ESE 21:49:51 10° NE
deb Chang Zheng 4 3.8 21:40:22 10° NNE 21:44:48 81° WNW 21:49:12 10° SSW
Cosmos 1602 Rocket 3.8 21:41:32 10° S 21:45:53 53° E 21:50:15 10° NNE
PSLV R/B 3.2 21:43:04 10° SSE 21:46:09 88° WSW 21:49:17 10° NNW
Cosmos 1464 Rocket 4.3 21:40:29 10° NNW 21:46:36 72° W 21:52:42 10° S
Cosmos 1812 Rocket 3.7 21:47:44 10° N 21:52:06 64° ENE 21:56:28 10° SSE
Meteor 2-4 Rocket 4.1 21:47:30 10° SSW 21:53:22 78° WNW 21:59:22 10° N
Cosmos 2251 Rocket 4.2 21:49:15 10° SW 21:54:31 61° WNW 21:59:52 10° NNE
Cosmos 2333 Rocket 3.8 21:51:31 10° WSW 21:56:50 41° NW 22:02:11 10° NNE
YAOGAN 6 2.7 21:59:40 10° SSE 22:03:22 70° ENE 22:07:07 10° N
Cosmos 2034 Rocket 4.4 21:58:12 10° NNW 22:04:34 70° W 22:10:51 10° S
USA 245 4.3 21:58:48 10° SSE 22:04:48 73° ENE 22:09:55 10° N
Cosmos 1634 Rocket 4.3 22:00:42 10° N 22:06:44 53° ENE 22:12:36 11° SSE
Envisat 3.6 22:01:58 10° S 22:06:58 57° W 22:12:00 10° NNW
Abrixas rocket 4.3 22:04:44 10° WSW 22:07:05 17° SW 22:09:25 10° S
H-2A R/B 3.9 22:05:57 10° SSW 22:09:39 29° W 22:13:27 10° NW
Cosmos 1943 4.2 22:05:50 10° SSE 22:10:25 26° ESE 22:15:04 10° NE
ATLAS 3B R/B 3.9 22:06:20 10° SSE 22:12:20 26° ESE 22:18:14 10° ENE
USA 81 4.3 22:08:53 10° N 22:14:07 58° E 22:19:05 11° SSE
ATLAS CENTAUR R/B 3.3 22:13:43 10° WSW 22:18:31 43° NW 22:23:18 10° NNE
Cosmos 1943 Rocket 3.4 22:13:44 10° NNW 22:18:39 31° NE 22:23:34 10° ESE
Cosmos 1626 Rocket 3.8 22:14:56 10° SSW 22:19:22 74° W 22:23:49 10° N
USA 234 3.8 22:17:55 12° SSE 22:23:55 50° SW 22:30:19 10° WNW
CZ-4C R/B 3.5 22:27:06 14° SSE 22:30:42 73° ENE 22:34:46 10° N
Cosmos 2279 Rocket 4.4 22:26:18 10° N 22:32:22 49° ENE 22:37:18 16° SE
Aureole 2 Rocket 3.7 22:28:40 10° SW 22:32:24 46° WNW 22:35:48 10° NNE
SAR-Lupe-2 4.0 22:30:26 17° SE 22:32:54 47° ENE 22:36:24 10° N
Cosmos 1953 Rocket 4.0 22:32:44 15° SSE 22:36:04 44° E 22:40:19 10° NNE
CZ-4 R/B 3.9 22:35:10 10° NNE 22:40:09 77° ESE 22:45:10 10° S
Atlas Centaur 2 4.3 22:35:43 10° SSW 22:40:52 18° S 22:43:36 16° SSE
Cosmos 1992 Rocket 4.2 22:36:36 10° NNW 22:41:49 71° WSW 22:46:04 15° S
H-2A R/B 2.1 22:40:36 17° SSE 22:44:23 65° ENE 22:49:25 10° N
Cosmos 1953 3.5 22:43:38 10° N 22:47:10 29° ENE 22:49:19 18° ESE
DELTA 2 DEB (DPAF) 4.3 22:45:03 16° S 22:48:41 75° WSW 22:53:13 10° NNW
Cosmos 2369 Rocket 2.3 22:45:01 10° NNW 22:50:43 79° WSW 22:54:55 18° SSE
Lacrosse 5 rocket 2.6 22:47:22 10° W 22:51:12 44° NNW 22:55:16 10° NE
Cosmos 2346 Rocket 4.4 22:45:56 10° S 22:52:07 83° E 22:58:17 10° N
COSMOS 2455 2.8 22:46:14 10° SSW 22:52:12 72° ESE 22:58:13 10° NE
IGS 5A 3.6 22:49:42 21° SSE 22:52:23 62° ENE 22:56:32 10° N
SPOT 1/Viking Rocket 4.4 22:48:08 10° S 22:53:05 46° W 22:58:04 10° NNW
Cosmos-2242 3.6 22:52:03 10° N 22:56:19 45° ENE 22:58:51 22° SE
Geosat 4.0 22:51:37 10° NE 22:56:39 65° ESE 23:01:38 10° SSW
Spot 4 4.0 22:53:32 20° SSE 22:56:47 65° ENE 23:01:33 10° N
ARGOS 3.7 22:52:25 12° S 22:57:21 54° W 23:02:42 10° NNW
DMSP B5D2-2 4.4 22:52:58 10° NNE 22:58:05 48° E 23:01:37 19° SSE
SL-16 R/B 4.1 22:55:10 10° WSW 23:00:14 33° NW 23:05:20 10° NNE
Landsat 7 4.0 22:57:50 18° S 23:01:25 71° WSW 23:06:12 10° NNW
Cosmos 1190 Rocket 4.1 22:57:52 13° S 23:02:32 61° ESE 23:07:47 10° NNE
Lacrosse 5 3.6 23:02:03 10° WNW 23:06:42 35° N 23:11:21 10° ENE
Meteor 1-22 Rocket 4.4 23:02:26 10° NNW 23:07:55 70° W 23:12:17 17° S
Lacrosse 4 Rocket 2.0 23:07:36 26° SSE 23:09:08 35° ESE 23:12:54 10° NE
Cosmos 1758 Rocket 3.5 23:07:24 19° S 23:10:29 79° E 23:14:53 10° NNE
SL-8 R/B 3.6 23:07:07 10° W 23:11:58 82° S 23:16:50 10° E
Cosmos 2263 4.3 23:06:46 10° NNW 23:12:23 74° WSW 23:16:02 23° SSE
CARTOSAT-1 3.7 23:11:49 22° S 23:14:34 68° WSW 23:18:54 10° NNW
SL-24 R/B 4.4 23:11:14 10° N 23:16:06 86° E 23:19:42 20° S
COSMOS 2406 4.5 23:14:45 20° SE 23:16:38 24° ESE 23:21:05 10° NE
Cosmos 1346 Rocket 2.8 23:14:09 18° SSW 23:16:56 78° WNW 23:20:53 10° N
Terra 2.0 23:14:06 21° S 23:17:13 70° WSW 23:22:00 10° NNW
Cosmos 676 Rocket 4.3 23:15:26 21° S 23:18:45 52° ESE 23:23:55 10° NNE
ALOS 2 4.5 23:19:23 13° ESE 23:21:58 20° ENE 23:25:10 10° NNE
Cosmos 1140 Rocket 4.3 23:29:33 26° SE 23:31:31 34° ESE 23:36:14 10° NE
Cosmos 1758 3.3 23:27:26 10° N 23:31:35 81° E 23:33:24 33° SSE
Cosmos 1842 3.2 23:33:46 30° S 23:35:38 87° E 23:39:35 10° N
Cosmos 1842 Rocket 3.7 23:31:58 10° N 23:36:19 61° ENE 23:38:13 32° SE
SL-27 R/B 3.0 23:37:01 35° ESE 23:37:14 35° ESE 23:40:21 10° NE
Cosmos 1900 4.5 23:35:38 22° SSW 23:38:51 57° ESE 23:43:54 10° NE
Cosmos 1092 Rocket 4.4 23:37:33 25° SSE 23:40:59 49° E 23:47:00 10° NNE
Cosmos 1544 3.4 23:43:45 10° N 23:47:28 56° ENE 23:48:35 38° SE
Cosmos 407 Rocket 3.7 23:47:41 13° SSW 23:52:20 70° WNW 23:57:33 10° NNE
CZ-4C R/B 4.1 23:53:07 13° ESE 23:53:27 13° ESE 23:55:49 10° E
Cosmos 1943 3.7 23:48:29 10° SW 23:54:05 60° WNW 23:59:45 10° NNE
BREEZE-M DEB (TANK) 4.4 23:52:24 10° WSW 23:57:23 - E 23:52:35 12° WSW
